This is the latest recevied weather packets stored in our database for station/object AB4CZ-1. If no packets are shown the sender has not sent any weather packets the latest 10 day(s).
| Time | Temp. | Humidity | Pressure | Rain* | Wind** | Luminosity | Snow |
|---|---|---|---|---|---|---|---|
| 1778120193 | 19.44° C | 97% | 1014.1 hPa | 9.4 mm | - | - | - |
| 1778119899 | 19.44° C | 97% | 1014.1 hPa | 9.14 mm | - | - | - |
| 1778119294 | 19.44° C | 96% | 1014.1 hPa | 9.4 mm | - | - | - |
| 1778118993 | 19.44° C | 96% | 1013.9 hPa | 9.65 mm | - | - | - |
| 1778118448 | 20° C | 95% | 1013.4 hPa | 9.4 mm | - | - | - |
| 1778118394 | 20° C | 95% | 1013.4 hPa | 9.4 mm | - | - | - |
| 1778118093 | 21.11° C | 95% | 1014.5 hPa | 5.33 mm | - | - | - |
| 1778117493 | 21.67° C | 97% | 1014.1 hPa | 3.3 mm | - | - | - |
| 1778117193 | 21.67° C | 97% | 1013.9 hPa | 3.3 mm | - | - | - |
| 1778116893 | 21.67° C | 97% | 1013.9 hPa | 3.81 mm | - | - | - |
| 1778116593 | 21.67° C | 97% | 1013.6 hPa | 3.56 mm | - | - | - |
| 1778116331 | 21.67° C | 97% | 1013.7 hPa | 3.3 mm | - | - | - |
| 1778116293 | 21.67° C | 97% | 1013.7 hPa | 3.3 mm | - | - | - |
| 1778115695 | 21.67° C | 97% | 1013.7 hPa | 2.54 mm | - | - | - |
| 1778115393 | 21.67° C | 97% | 1013.7 hPa | 2.29 mm | - | - | - |
| 1778115098 | 21.67° C | 97% | 1013.5 hPa | 2.03 mm | - | - | - |
| 1778114794 | 21.67° C | 97% | 1013.7 hPa | 2.03 mm | - | - | - |
| 1778114494 | 21.67° C | 97% | 1013.5 hPa | 1.78 mm | - | - | - |
| 1778114194 | 21.67° C | 96% | 1013.6 hPa | 1.78 mm | - | - | - |
| 1778113593 | 21.67° C | 96% | 1013.7 hPa | 2.54 mm | - | - | - |
| 1778113295 | 21.67° C | 96% | 1013.7 hPa | 4.57 mm | - | - | - |
| 1778112993 | 21.67° C | 96% | 1013.6 hPa | 7.11 mm | - | - | - |
| 1778112693 | 21.67° C | 96% | 1013.6 hPa | 10.92 mm | - | - | - |
| 1778112393 | 21.67° C | 95% | 1013.6 hPa | 12.19 mm | - | - | - |
| 1778112161 | 21.67° C | 95% | 1013.6 hPa | 12.19 mm | - | - | - |
* Rain latest hour (hover to see other rain measurements)
** Current wind speed in m/s (hover to see current wind gust speed)